Track STARLINK-1274 now! 10-day predictions STARLINK-1274 is classified as:
1 45387U 20019AD 21024.90905525 .00000289 00000-0 38358-4 0 9993 2 45387 53.0575 260.3611 0002522 82.2324 277.8951 15.06395961 48180